Regional Weather Roundup
Issued by NWS

Home | Current Version | Previous Version | Text Only | Print | Product List | Glossary Off
Versions: 1 2 3 4 5 6 7 8 9 10 11 12 13 14 15 16 17 18 19 20 21 22 23 24 25 26 27 28 29 30 31 32 33 34 35 36 37 38 39 40 41 42 43 44 45 46 47 48 49 50

000
ASUS43 KMPX 230001
RWRMN
WEATHER ROUNDUP FOR MINNESOTA
NATIONAL WEATHER SERVICE TWIN CITIES/CHANHASSEN MN
700 PM CDT SAT APR 22 2017


NOTE: "FAIR" INDICATES FEW OR NO CLOUDS BELOW 12,000 FEET WITH NO
SIGNIFICANT WEATHER AND/OR OBSTRUCTIONS TO VISIBILITY. N/A MEANS
CURRENT SKY AND/OR WEATHER CONDITIONS ARE NOT AVAILABLE.

MNZ060>063-068>070-230100-
   Twin Cities Metro

CITY           SKY/WX    TMP DP  RH WIND       PRES   REMARKS
TWIN CITIES    MOSUNNY   67  34  29 W12       30.12F
6HR MIN TEMP:  65; 6HR MAX TEMP:  69;

ST PAUL        SUNNY     66  34  30 W12       30.12F
CRYSTAL        SUNNY     66  31  27 W8        30.10F
BLAINE         SUNNY     68  36  30 W12G17    30.11F
LAKEVILLE      SUNNY     64  37  36 W7        30.13F
EDEN PRAIRIE   SUNNY     68  35  29 NW7       30.11F
6HR MIN TEMP:  66; 6HR MAX TEMP:  70;

SOUTH ST PAUL  SUNNY     67  33  28 W8        30.11F
LAKE ELMO      FAIR      64  36  34 W8        30.12F
$$
MNZ001>005-007-008-013>017-022>024-027-028-230100-
   Northwest Minnesota

CITY           SKY/WX    TMP DP  RH WIND       PRES   REMARKS
BEMIDJI        PTSUNNY   54  40  57 N9        30.09R
HALLOCK        CLOUDY    36  28  75 N16       30.22S
ROSEAU         CLOUDY    36  30  80 N12       30.19F
WARROAD        CLOUDY    37  34  87 NW8       30.18F
THIEF RVR FALL PTSUNNY   40  33  76 N22       30.17
CROOKSTON      MOSUNNY   43  36  75 N21G29    30.16S
FOSSTON        SUNNY     54  37  54 N21       30.11S
DETROIT LAKES  SUNNY     61  43  51 NW10      30.08S
MOORHEAD       SUNNY     63  43  48 N13       30.07F
PARK RAPIDS    PTSUNNY   65  36  34 W12       30.05F
MAHNOMEN       FAIR      57  42  57 N14       30.07F
$$
MNZ006-009>011-018-025>026-230100-
   North Central Minnesota

CITY           SKY/WX    TMP DP  RH WIND       PRES   REMARKS
BAUDETTE       CLOUDY    38  36  92 NW9       30.16S
FLAG ISLAND    CLOUDY    39  28  65 VRB16     30.17S
INTL FALLS     LGT RAIN  41  37  86 NW8       30.14R FOG
6HR MIN TEMP:  41; 6HR MAX TEMP:  56; 6HR PCP: TRACE;

WASKISH        CLOUDY    43  36  75 N13       30.14S
BIG FORK       SUNNY     54  39  58 N8        30.09R
LONGVILLE      PTSUNNY   61  39  44 NW3       30.05F
GRAND RAPIDS   MOSUNNY   61  40  45 NW13      30.06F
CRANE LAKE     CLOUDY    45  37  76 N6        30.12F
ORR            PTSUNNY   48  36  61 MISG      30.07S
COOK           SUNNY     54  37  54 N5        30.08S
WALKER         FAIR      62  39  42 NW9       30.05F
$$
MNZ012-019>021-037-230100-
   Northeast Minnesota

CITY           SKY/WX    TMP DP  RH WIND       PRES   REMARKS
DULUTH         MOSUNNY   62  36  37 W15       30.03F
6HR MIN TEMP:  62; 6HR MAX TEMP:  68;

ELY            MOSUNNY   52  36  54 NW8G18    30.07R
HIBBING        MOSUNNY   57  39  51 NW13      30.04R
EVELETH        SUNNY     58  33  38 N6        30.05S
DULUTH HARBOR  MOSUNNY   66  37  34 W13       30.03F
TWO HARBORS    SUNNY     68  41  37 W9G18     30.00S
SILVER BAY     PTCLDY    63  41  45 NW3       30.00R
GRAND MARAIS     N/A     57  39  51 NW17G31   29.99R
G MARAIS ARPRT CLEAR     48  34  57 NW12G22   30.05R
$$
MNZ029>031-032-039>041-046>048-054>057-064-230100-
   West Central Minnesota

CITY           SKY/WX    TMP DP  RH WIND       PRES   REMARKS
FERGUS FALLS   SUNNY     66  39  37 W10       30.05F
WHEATON        MOSUNNY   68  34  28 SW12      30.09F
MORRIS         SUNNY     66  37  34 W13       30.10F
ALEXANDRIA     MOSUNNY   65  36  34 W13       30.10F
ELBOW LAKE     FAIR      65  38  35 SW10      30.08F
WADENA         SUNNY     64  39  39 SW10G17   30.07F
GLENWOOD       SUNNY     64  36  34 W15       30.11F
APPLETON       SUNNY     68  34  28 W9        30.11F
BENSON         SUNNY     70  27  19 W8        30.13F
ORTONVILLE     SUNNY     66  36  32 SW7       30.11F
MADISON        SUNNY     70  36  28 W12       30.13S
WILLMAR        FAIR      66  36  32 W10       30.13F
$$
MNZ033>034-036-042>043-049>051-058-059-230100-
   Central Minnesota

CITY           SKY/WX    TMP DP  RH WIND       PRES   REMARKS
ST CLOUD       SUNNY     66  36  32 W15       30.10F
6HR MIN TEMP:  63; 6HR MAX TEMP:  68;

SAUK CENTRE    FAIR      64  36  35 W13       30.11F
PAYNESVILLE    SUNNY     66  34  29 W9        30.12F
AITKIN         SUNNY     66  28  24 SW12      30.05F
PINE RIVER     MOSUNNY   64  39  39 SW13      30.09F
BRAINERD       SUNNY     64  35  34 W12       30.08F
STAPLES        SUNNY     63  36  36 W12       30.08F
LONG PRAIRIE   FAIR      63  36  36 SW6       30.10F
LITTLE FALLS   SUNNY     64  32  29 W9        30.10F
BUFFALO        SUNNY     65  31  28 W8        30.13F
MAPLE LAKE     SUNNY     67  36  31 W7        30.13F
HUTCHINSON     CLOUDY    67  38  34 W8        30.14F
$$
MNZ037-044-045-052-053-230100-
   East Central Minnesota

CITY           SKY/WX    TMP DP  RH WIND       PRES   REMARKS
PRINCETON      SUNNY     66  36  32 W10       30.10F
MORA           SUNNY     64  36  34 W8        30.10F
CAMBRIDGE      SUNNY     68  43  40 W10G16    30.08F
RUSH CITY      SUNNY     65  34  32 W8        30.10F
MOOSE LAKE     SUNNY     64  36  34 W10G17    30.05S
HINCKLEY       FAIR      64  36  34 SW13      30.08F
CLOQUET        MOSUNNY   64  28  25 W12G20    30.05S
MCGREGOR       MOSUNNY   64  36  34 W10G20    30.06F
$$
MNZ071>073-080-081-089-090-097-098-230100-
   Southwest Minnesota

CITY           SKY/WX    TMP DP  RH WIND       PRES   REMARKS
MONTEVIDEO     SUNNY     70  36  28 NW7       30.13S
GRANITE FALLS  SUNNY     69  35  28 W10       30.15S
CANBY          SUNNY     68  34  29 SW8       30.15S
MARSHALL       SUNNY     66  36  32 W9        30.14F
REDWOOD FALLS  SUNNY     68  32  26 W10       30.13F
OLIVIA         SUNNY     70  37  30 W9        30.13S
PIPESTONE      SUNNY     64  27  24 NW5       30.16F
WINDOM         SUNNY     66  30  26 W7        30.16S
WORTHINGTON    SUNNY     64  35  34 W8        30.17F
JACKSON        SUNNY     64  32  29 W6        30.16F
TRACY          SUNNY     67  34  29 W5        30.15F
SLAYTON        SUNNY     64  33  31 W3        30.17F
$$
MNZ065>067-074>077-082>085-091>093-230100-
   South Central Minnesota

CITY           SKY/WX    TMP DP  RH WIND       PRES   REMARKS
NEW ULM        SUNNY     66  32  28 W8        30.13F
ST JAMES       SUNNY     66  34  30 W7        30.16S
FAIRMONT       SUNNY     66  35  31 W8        30.16F
GLENCOE        SUNNY     68  36  30 W10       30.12F
FARIBAULT      SUNNY     66  36  32 W5        30.14F
OWATONNA       SUNNY     66  34  30 W6        30.14F
WASECA         SUNNY     64  32  29 W9        30.16S
ALBERT LEA     SUNNY     64  27  24 CALM      30.15F
$$
MNZ078>079-086>088-094>096-230100-
   Southeast Minnesota

CITY           SKY/WX    TMP DP  RH WIND       PRES   REMARKS
ROCHESTER      SUNNY     64  33  31 VRB7      30.15F
6HR MIN TEMP:  61; 6HR MAX TEMP:  65;

RED WING       SUNNY     66  28  24 W7        30.11F
STANTON        SUNNY     66  37  34 W8        30.12F
DODGE CENTER   SUNNY     64  32  29 W10       30.15S
WINONA         CLEAR     66  32  28 W6        30.14S
AUSTIN         SUNNY     63  32  31 W6        30.15S
PRESTON        CLEAR     61  33  35 NW7       30.16S
$$
ABBREVIATIONS USED IN REMARKS
   TC - TEMPERATURES IN CELSIUS
  WCI - WIND CHILL INDEX
   HX - HEAT INDEX
  VSB - VISIBILITY
$$



USA.gov is the U.S. government's official web portal to all federal, state and local government web resources and services.